Tracking 20942 objects as of 11-Jul-2020
HD Live streaming from Space Station
objects crossing your sky now

THOR ABLESTAR DEB

Track THOR ABLESTAR DEB now!
10-day predictions


NORAD ID: 656
Int'l Code: 1961-015HH
Perigee: 879.2 km
Apogee: 1,915.3 km
Inclination: 66.3 °
Period: 113.6 minutes
Semi major axis: 7768 km
RCS: 0.0195 m2 (small)
Launch date: June 29, 1961
Source: United States (US)
Launch site: AIR FORCE EASTERN TEST RANGE (AFETR)

Note: This is SATELLITE DEBRIS
aabbcc
Your satellite tracking list
Your tracking list is empty




NASA's NSSDC Master Catalog

Two Line Element Set (TLE):
1   656U 61015HH  20192.65196181 -.00001104  00000-0 -22314-2 0  9993
2   656  66.2896 292.5509 0666890  97.4462 270.2779 12.67988130692753
Source of the keplerian elements: AFSPC